QPF
0.00 0.00 0.00 0.00 0.00 0.00 0.00 0.00 0.01 0.00 0.00 0.00 0.01 0.02 0.02 0.02 0.01 0.01 0.01 0.01 0.01 0.01 0.01 0.01 0.01 0.01 0.01 0.01 0.01 0.02 0.03 0.04 0.03 0.04 0.06 0.06 0.07 0.07 0.07 0.07 0.06 0.06 0.06 0.08
0.00 0.00 0.00 0.00 0.00 0.00 0.00 0.00 0.00 0.00 0.00 0.00 0.01 0.01 0.02 0.02 0.02 0.02 0.02 0.02 0.02 0.02 0.01 0.01 0.00 0.00 0.00 0.01 0.01 0.01 0.02 0.03 0.04 0.05 0.05 0.05 0.05 0.07 0.08 0.07 0.06 0.07 0.07 0.07
0.00 0.00 0.00 0.00 0.00 0.00 0.00 0.00 0.00 0.00 0.01 0.01 0.01 0.01 0.01 0.01 0.02 0.02 0.02 0.04 0.05 0.04 0.03 0.01 0.01 0.01 0.00 0.01 0.01 0.01 0.02 0.02 0.03 0.05 0.06 0.05 0.06 0.06 0.07 0.07 0.06 0.06 0.06 0.06
0.00 0.00 0.00 0.00 0.00 0.00 0.00 0.00 0.00 0.00 0.00 0.00 0.01 0.01 0.01 0.01 0.01 0.01 0.01 0.02 0.04 0.05 0.06 0.04 0.02 0.01 0.01 0.01 0.01 0.01 0.02 0.02 0.03 0.04 0.06 0.06 0.06 0.07 0.06 0.06 0.06 0.05 0.04 0.05
0.00 0.00 0.00 0.01 0.01 0.00 0.00 0.00 0.00 0.00 0.00 0.00 0.01 0.01 0.01 0.01 0.01 0.01 0.01 0.01 0.03 0.05 0.06 0.06 0.05 0.03 0.01 0.01 0.01 0.01 0.01 0.02 0.02 0.03 0.04 0.07 0.07 0.06 0.05 0.05 0.05 0.06 0.05 0.04
0.00 0.00 0.00 0.01 0.00 0.00 0.00 0.01 0.00 0.00 0.00 0.00 0.01 0.02 0.02 0.03 0.02 0.01 0.01 0.01 0.01 0.05 0.07 0.07 0.04 0.04 0.04 0.03 0.02 0.01 0.01 0.01 0.02 0.02 0.03 0.03 0.06 0.06 0.05 0.05 0.05 0.06 0.06 0.04
0.00 0.00 0.01 0.00 0.00 0.00 0.01 0.02 0.01 0.00 0.00 0.00 0.01 0.02 0.03 0.03 0.02 0.01 0.01 0.00 0.00 0.04 0.07 0.09 0.05 0.05 0.07 0.05 0.03 0.02 0.02 0.02 0.02 0.02 0.02 0.03 0.03 0.05 0.07 0.06 0.06 0.06 0.06 0.05
0.01 0.01 0.01 0.01 0.01 0.01 0.02 0.01 0.01 0.00 0.00 0.00 0.01 0.01 0.02 0.02 0.01 0.01 0.01 0.00 0.00 0.02 0.06 0.08 0.06 0.05 0.05 0.06 0.06 0.05 0.04 0.02 0.02 0.02 0.03 0.02 0.03 0.03 0.05 0.07 0.07 0.06 0.07 0.07
0.01 0.01 0.02 0.01 0.01 0.01 0.02 0.01 0.00 0.00 0.00 0.00 0.00 0.00 0.01 0.01 0.01 0.01 0.01 0.01 0.01 0.02 0.03 0.06 0.07 0.04 0.04 0.05 0.05 0.05 0.03 0.02 0.02 0.03 0.05 0.05 0.04 0.05 0.05 0.06 0.09 0.09 0.09 0.10
0.01 0.01 0.01 0.01 0.01 0.01 0.01 0.01 0.00 0.00 0.00 0.00 0.00 0.00 0.00 0.00 0.01 0.02 0.02 0.03 0.03 0.03 0.03 0.05 0.08 0.06 0.04 0.04 0.06 0.05 0.03 0.03 0.08 0.08 0.08 0.09 0.07 0.08 0.10 0.09 0.09 0.12 0.10 0.11
0.01 0.01 0.01 0.01 0.01 0.01 0.01 0.01 0.00 0.00 0.00 0.00 0.00 0.00 0.00 0.00 0.00 0.00 0.01 0.01 0.01 0.02 0.04 0.05 0.08 0.09 0.06 0.05 0.07 0.06 0.03 0.03 0.04 0.07 0.06 0.05 0.06 0.06 0.07 0.10 0.12 0.12 0.12 0.10
0.01 0.01 0.02 0.02 0.01 0.01 0.01 0.01 0.01 0.00 0.00 0.00 0.00 0.00 0.00 0.00 0.00 0.00 0.00 0.00 0.01 0.01 0.02 0.04 0.06 0.10 0.10 0.08 0.07 0.05 0.03 0.03 0.03 0.05 0.04 0.04 0.05 0.06 0.04 0.05 0.08 0.11 0.14 0.13
0.02 0.02 0.02 0.02 0.01 0.01 0.00 0.01 0.01 0.00 0.00 0.00 0.00 0.00 0.00 0.00 0.00 0.00 0.00 0.00 0.00 0.00 0.01 0.02 0.04 0.07 0.10 0.09 0.09 0.08 0.06 0.04 0.03 0.04 0.05 0.04 0.03 0.03 0.02 0.03 0.04 0.06 0.10 0.13
0.01 0.01 0.01 0.01 0.01 0.01 0.01 0.00 0.00 0.00 0.00 0.00 0.00 0.00 0.00 0.00 0.00 0.00 0.00 0.00 0.00 0.00 0.01 0.02 0.02 0.04 0.08 0.09 0.08 0.09 0.08 0.06 0.04 0.03 0.03 0.03 0.02 0.02 0.02 0.03 0.04 0.05 0.07 0.11
0.01 0.01 0.01 0.01 0.01 0.01 0.00 0.00 0.00 0.00 0.00 0.00 0.00 0.00 0.00 0.00 0.00 0.00 0.00 0.00 0.01 0.01 0.02 0.02 0.02 0.02 0.05 0.08 0.08 0.09 0.08 0.07 0.05 0.03 0.02 0.02 0.02 0.02 0.02 0.03 0.04 0.04 0.04 0.07
0.01 0.01 0.01 0.01 0.01 0.01 0.00 0.00 0.00 0.00 0.00 0.00 0.00 0.00 0.00 0.00 0.00 0.00 0.00 0.00 0.01 0.01 0.02 0.02 0.02 0.02 0.04 0.08 0.08 0.08 0.08 0.07 0.06 0.04 0.02 0.02 0.01 0.01 0.01 0.02 0.03 0.03 0.03 0.05
0.01 0.01 0.01 0.01 0.01 0.01 0.00 0.00 0.00 0.00 0.00 0.00 0.00 0.00 0.00 0.00 0.00 0.00 0.00 0.00 0.00 0.01 0.02 0.02 0.03 0.03 0.03 0.06 0.08 0.07 0.06 0.06 0.07 0.06 0.04 0.03 0.02 0.02 0.02 0.02 0.02 0.03 0.04 0.04
0.00 0.01 0.01 0.01 0.01 0.01 0.00 0.00 0.00 0.00 0.00 0.00 0.00 0.00 0.00 0.00 0.00 0.00 0.01 0.00 0.00 0.01 0.01 0.02 0.02 0.02 0.02 0.03 0.05 0.07 0.07 0.06 0.07 0.06 0.05 0.04 0.03 0.02 0.02 0.02 0.02 0.03 0.03 0.03
0.00 0.00 0.00 0.00 0.00 0.00 0.00 0.00 0.00 0.00 0.00 0.00 0.00 0.00 0.00 0.00 0.01 0.01 0.01 0.01 0.01 0.01 0.01 0.01 0.01 0.01 0.02 0.03 0.04 0.05 0.08 0.08 0.08 0.08 0.06 0.05 0.04 0.03 0.02 0.01 0.02 0.02 0.02 0.02
0.00 0.00 0.00 0.00 0.00 0.00 0.00 0.00 0.00 0.00 0.00 0.00 0.01 0.01 0.01 0.01 0.01 0.01 0.01 0.01 0.01 0.01 0.01 0.01 0.01 0.01 0.01 0.02 0.03 0.04 0.06 0.07 0.08 0.08 0.07 0.06 0.04 0.04 0.03 0.02 0.02 0.01 0.01 0.02
0.00 0.00 0.00 0.00 0.00 0.00 0.00 0.00 0.01 0.01 0.00 0.01 0.01 0.01 0.01 0.01 0.01 0.01 0.01 0.01 0.01 0.01 0.01 0.02 0.01 0.01 0.01 0.02 0.01 0.02 0.03 0.04 0.04 0.05 0.07 0.07 0.06 0.04 0.04 0.03 0.02 0.02 0.01 0.02
0.00 0.00 0.00 0.00 0.00 0.00 0.00 0.01 0.01 0.00 0.00 0.00 0.00 0.01 0.01 0.01 0.01 0.01 0.01 0.02 0.01 0.01 0.01 0.01 0.01 0.01 0.01 0.01 0.01 0.01 0.01 0.02 0.02 0.03 0.04 0.06 0.07 0.06 0.05 0.03 0.03 0.02 0.02 0.02
0.00 0.00 0.00 0.00 0.00 0.00 0.00 0.00 0.00 0.00 0.00 0.00 0.00 0.01 0.01 0.01 0.01 0.01 0.01 0.02 0.02 0.01 0.01 0.01 0.01 0.02 0.02 0.01 0.01 0.01 0.01 0.01 0.01 0.02 0.03 0.04 0.06 0.07 0.05 0.04 0.04 0.03 0.02 0.02
0.00 0.00 0.00 0.00 0.01 0.01 0.01 0.00 0.00 0.00 0.00 0.00 0.00 0.00 0.00 0.00 0.00 0.01 0.01 0.01 0.02 0.02 0.01 0.01 0.01 0.01 0.02 0.02 0.01 0.01 0.01 0.01 0.01 0.01 0.02 0.03 0.03 0.04 0.05 0.04 0.04 0.03 0.03 0.02
0.00 0.00 0.00 0.00 0.00 0.01 0.01 0.01 0.01 0.01 0.01 0.01 0.01 0.01 0.01 0.01 0.00 0.00 0.00 0.01 0.01 0.02 0.03 0.02 0.01 0.01 0.01 0.01 0.01 0.01 0.01 0.01 0.01 0.01 0.01 0.02 0.02 0.02 0.02 0.02 0.02 0.02 0.02 0.02
0.00 0.00 0.00 0.00 0.00 0.00 0.00 0.01 0.01 0.00 0.00 0.01 0.01 0.01 0.01 0.01 0.01 0.00 0.00 0.00 0.00 0.01 0.02 0.02 0.01 0.01 0.01 0.01 0.01 0.01 0.01 0.01 0.01 0.01 0.01 0.01 0.01 0.02 0.02 0.01 0.01 0.01 0.01 0.02
0.00 0.00 0.00 0.00 0.00 0.00 0.01 0.01 0.00 0.00 0.00 0.00 0.00 0.00 0.01 0.01 0.01 0.00 0.00 0.00 0.00 0.00 0.01 0.01 0.02 0.01 0.01 0.01 0.01 0.01 0.00 0.00 0.00 0.00 0.00 0.01 0.01 0.01 0.01 0.01 0.01 0.02 0.02 0.02
MSLP
1010.63 1010.73 1010.86 1011.04 1011.30 1011.64 1012.04 1012.50 1012.98 1013.47 1013.94 1014.39 1014.82 1015.22 1015.60 1015.95 1016.29 1016.59 1016.84 1017.04 1017.17 1017.22 1017.20 1017.12 1016.99 1016.83 1016.65 1016.47 1016.31 1016.15 1016.01 1015.87 1015.73 1015.59 1015.44 1015.28 1015.12 1014.96 1014.81 1014.68 1014.55 1014.44 1014.34 1014.25
1010.55 1010.66 1010.77 1010.90 1011.10 1011.36 1011.69 1012.10 1012.56 1013.06 1013.58 1014.12 1014.64 1015.15 1015.63 1016.07 1016.45 1016.76 1016.99 1017.14 1017.20 1017.18 1017.10 1016.97 1016.81 1016.63 1016.46 1016.29 1016.15 1016.02 1015.90 1015.79 1015.67 1015.54 1015.40 1015.26 1015.11 1014.96 1014.82 1014.68 1014.56 1014.43 1014.31 1014.20
1010.47 1010.59 1010.70 1010.82 1010.99 1011.21 1011.51 1011.88 1012.32 1012.83 1013.39 1013.97 1014.56 1015.13 1015.66 1016.13 1016.52 1016.81 1017.01 1017.10 1017.10 1017.02 1016.89 1016.72 1016.54 1016.36 1016.19 1016.05 1015.93 1015.82 1015.72 1015.61 1015.49 1015.36 1015.22 1015.07 1014.92 1014.77 1014.63 1014.50 1014.38 1014.25 1014.12 1013.99
1010.36 1010.50 1010.63 1010.77 1010.93 1011.15 1011.43 1011.79 1012.23 1012.74 1013.30 1013.89 1014.50 1015.08 1015.61 1016.07 1016.44 1016.70 1016.84 1016.89 1016.83 1016.72 1016.55 1016.37 1016.18 1016.02 1015.87 1015.76 1015.66 1015.57 1015.47 1015.37 1015.24 1015.10 1014.94 1014.78 1014.61 1014.45 1014.31 1014.17 1014.05 1013.92 1013.79 1013.65
1010.16 1010.34 1010.50 1010.67 1010.86 1011.10 1011.39 1011.75 1012.18 1012.68 1013.23 1013.81 1014.40 1014.95 1015.46 1015.88 1016.20 1016.41 1016.51 1016.50 1016.42 1016.27 1016.10 1015.92 1015.75 1015.61 1015.50 1015.41 1015.34 1015.27 1015.18 1015.08 1014.94 1014.78 1014.60 1014.41 1014.22 1014.04 1013.88 1013.74 1013.61 1013.49 1013.36 1013.21
1009.85 1010.05 1010.25 1010.47 1010.70 1010.98 1011.30 1011.68 1012.11 1012.60 1013.13 1013.68 1014.22 1014.74 1015.19 1015.56 1015.82 1015.98 1016.04 1016.00 1015.89 1015.74 1015.57 1015.41 1015.27 1015.16 1015.08 1015.03 1014.98 1014.93 1014.85 1014.75 1014.60 1014.43 1014.22 1014.01 1013.80 1013.60 1013.42 1013.26 1013.12 1012.99 1012.86 1012.71
1009.39 1009.62 1009.86 1010.13 1010.42 1010.75 1011.11 1011.52 1011.96 1012.45 1012.96 1013.47 1013.97 1014.44 1014.83 1015.15 1015.36 1015.48 1015.50 1015.43 1015.31 1015.16 1015.01 1014.86 1014.75 1014.67 1014.63 1014.60 1014.58 1014.54 1014.48 1014.37 1014.22 1014.04 1013.82 1013.58 1013.35 1013.12 1012.92 1012.75 1012.59 1012.44 1012.30 1012.14
1008.81 1009.06 1009.34 1009.66 1010.02 1010.40 1010.81 1011.26 1011.73 1012.21 1012.71 1013.20 1013.66 1014.08 1014.43 1014.70 1014.87 1014.96 1014.95 1014.88 1014.75 1014.61 1014.46 1014.33 1014.23 1014.18 1014.15 1014.14 1014.13 1014.11 1014.05 1013.95 1013.80 1013.60 1013.37 1013.12 1012.86 1012.61 1012.39 1012.18 1012.00 1011.83 1011.67 1011.50
1008.16 1008.42 1008.75 1009.12 1009.53 1009.97 1010.44 1010.93 1011.42 1011.92 1012.41 1012.88 1013.32 1013.71 1014.02 1014.26 1014.41 1014.47 1014.46 1014.38 1014.25 1014.11 1013.96 1013.84 1013.75 1013.69 1013.66 1013.65 1013.64 1013.62 1013.56 1013.45 1013.30 1013.10 1012.86 1012.59 1012.31 1012.04 1011.78 1011.54 1011.33 1011.13 1010.94 1010.75
1007.52 1007.80 1008.15 1008.57 1009.04 1009.53 1010.05 1010.57 1011.09 1011.60 1012.09 1012.55 1012.97 1013.33 1013.63 1013.85 1013.99 1014.05 1014.03 1013.95 1013.83 1013.69 1013.54 1013.41 1013.30 1013.22 1013.18 1013.15 1013.12 1013.07 1013.00 1012.88 1012.72 1012.50 1012.25 1011.96 1011.66 1011.35 1011.06 1010.78 1010.53 1010.29 1010.07 1009.85
1006.96 1007.25 1007.64 1008.10 1008.61 1009.14 1009.69 1010.23 1010.77 1011.28 1011.76 1012.21 1012.61 1012.96 1013.25 1013.47 1013.61 1013.67 1013.66 1013.59 1013.47 1013.33 1013.17 1013.02 1012.88 1012.77 1012.68 1012.61 1012.55 1012.47 1012.37 1012.23 1012.04 1011.80 1011.52 1011.21 1010.87 1010.53 1010.19 1009.87 1009.57 1009.29 1009.03 1008.79
1006.54 1006.86 1007.27 1007.76 1008.29 1008.85 1009.41 1009.96 1010.48 1010.98 1011.44 1011.87 1012.25 1012.58 1012.86 1013.07 1013.22 1013.30 1013.31 1013.25 1013.14 1012.99 1012.82 1012.64 1012.47 1012.32 1012.18 1012.05 1011.93 1011.81 1011.66 1011.48 1011.26 1010.99 1010.68 1010.33 1009.96 1009.57 1009.19 1008.82 1008.47 1008.15 1007.85 1007.58
1006.27 1006.61 1007.05 1007.56 1008.10 1008.66 1009.22 1009.74 1010.24 1010.70 1011.12 1011.51 1011.85 1012.16 1012.43 1012.64 1012.79 1012.88 1012.91 1012.87 1012.77 1012.62 1012.44 1012.24 1012.03 1011.83 1011.63 1011.45 1011.27 1011.09 1010.88 1010.66 1010.39 1010.09 1009.74 1009.35 1008.94 1008.51 1008.08 1007.66 1007.27 1006.90 1006.57 1006.27
1006.13 1006.50 1006.96 1007.48 1008.02 1008.57 1009.09 1009.57 1010.02 1010.42 1010.78 1011.11 1011.41 1011.68 1011.93 1012.13 1012.29 1012.39 1012.44 1012.41 1012.33 1012.19 1012.00 1011.78 1011.54 1011.29 1011.04 1010.80 1010.56 1010.31 1010.06 1009.78 1009.47 1009.13 1008.74 1008.32 1007.87 1007.40 1006.93 1006.47 1006.04 1005.64 1005.28 1004.96
1006.07 1006.47 1006.94 1007.46 1008.00 1008.51 1008.99 1009.41 1009.79 1010.12 1010.41 1010.67 1010.91 1011.14 1011.35 1011.54 1011.70 1011.81 1011.87 1011.87 1011.80 1011.67 1011.48 1011.24 1010.97 1010.69 1010.39 1010.09 1009.80 1009.50 1009.20 1008.88 1008.53 1008.15 1007.73 1007.28 1006.81 1006.31 1005.81 1005.33 1004.86 1004.44 1004.06 1003.73
1006.04 1006.46 1006.94 1007.46 1007.97 1008.45 1008.87 1009.23 1009.53 1009.78 1009.99 1010.18 1010.36 1010.54 1010.72 1010.89 1011.04 1011.16 1011.24 1011.25 1011.19 1011.07 1010.88 1010.63 1010.35 1010.03 1009.70 1009.36 1009.02 1008.68 1008.34 1007.98 1007.61 1007.20 1006.77 1006.30 1005.81 1005.30 1004.79 1004.28 1003.81 1003.36 1002.97 1002.63
1005.99 1006.43 1006.92 1007.43 1007.91 1008.34 1008.71 1009.00 1009.22 1009.40 1009.54 1009.66 1009.78 1009.92 1010.07 1010.22 1010.36 1010.48 1010.56 1010.59 1010.54 1010.43 1010.24 1009.99 1009.68 1009.35 1008.99 1008.63 1008.26 1007.89 1007.52 1007.14 1006.75 1006.34 1005.89 1005.42 1004.92 1004.41 1003.89 1003.38 1002.89 1002.44 1002.03 1001.68
1005.90 1006.35 1006.84 1007.33 1007.79 1008.17 1008.48 1008.71 1008.87 1008.98 1009.06 1009.13 1009.21 1009.31 1009.43 1009.57 1009.71 1009.83 1009.92 1009.95 1009.90 1009.79 1009.60 1009.34 1009.03 1008.68 1008.31 1007.93 1007.54 1007.16 1006.77 1006.39 1005.99 1005.57 1005.13 1004.65 1004.16 1003.64 1003.12 1002.60 1002.10 1001.64 1001.21 1000.84
1005.80 1006.25 1006.73 1007.20 1007.61 1007.95 1008.21 1008.39 1008.50 1008.56 1008.60 1008.63 1008.69 1008.77 1008.88 1009.00 1009.14 1009.26 1009.34 1009.37 1009.33 1009.21 1009.01 1008.75 1008.43 1008.08 1007.69 1007.30 1006.90 1006.51 1006.12 1005.73 1005.33 1004.91 1004.47 1003.99 1003.49 1002.97 1002.43 1001.90 1001.38 1000.89 1000.44 1000.04
1005.72 1006.17 1006.62 1007.05 1007.42 1007.71 1007.92 1008.05 1008.13 1008.16 1008.17 1008.20 1008.24 1008.32 1008.42 1008.55 1008.68 1008.79 1008.87 1008.89 1008.84 1008.72 1008.51 1008.24 1007.92 1007.55 1007.17 1006.77 1006.37 1005.97 1005.57 1005.18 1004.77 1004.34 1003.88 1003.39 1002.87 1002.32 1001.76 1001.19 1000.63 1000.10 999.61 999.17
1005.72 1006.13 1006.54 1006.92 1007.24 1007.48 1007.64 1007.74 1007.79 1007.80 1007.81 1007.84 1007.89 1007.97 1008.08 1008.21 1008.34 1008.45 1008.52 1008.52 1008.46 1008.32 1008.11 1007.83 1007.50 1007.13 1006.73 1006.33 1005.92 1005.52 1005.11 1004.69 1004.26 1003.80 1003.31 1002.78 1002.22 1001.62 1001.01 1000.38 999.77 999.18 998.64 998.14
1005.80 1006.17 1006.53 1006.84 1007.10 1007.28 1007.40 1007.47 1007.50 1007.51 1007.53 1007.56 1007.63 1007.73 1007.85 1007.98 1008.11 1008.21 1008.26 1008.26 1008.18 1008.02 1007.79 1007.50 1007.16 1006.78 1006.38 1005.97 1005.55 1005.13 1004.70 1004.25 1003.77 1003.27 1002.71 1002.12 1001.48 1000.81 1000.12 999.42 998.73 998.08 997.47 996.92
1005.98 1006.29 1006.58 1006.82 1007.01 1007.14 1007.21 1007.25 1007.27 1007.28 1007.31 1007.37 1007.45 1007.57 1007.70 1007.84 1007.96 1008.05 1008.09 1008.06 1007.96 1007.78 1007.54 1007.24 1006.88 1006.50 1006.09 1005.66 1005.22 1004.77 1004.29 1003.79 1003.26 1002.67 1002.03 1001.35 1000.61 999.84 999.05 998.26 997.49 996.76 996.09 995.49
1006.23 1006.47 1006.68 1006.85 1006.96 1007.03 1007.06 1007.08 1007.09 1007.11 1007.16 1007.23 1007.34 1007.47 1007.61 1007.75 1007.86 1007.93 1007.95 1007.90 1007.78 1007.58 1007.32 1007.00 1006.64 1006.24 1005.82 1005.37 1004.90 1004.40 1003.87 1003.30 1002.67 1001.99 1001.25 1000.44 999.59 998.71 997.82 996.93 996.08 995.28 994.56 993.93
1006.49 1006.66 1006.79 1006.88 1006.93 1006.94 1006.94 1006.94 1006.94 1006.98 1007.04 1007.13 1007.26 1007.40 1007.55 1007.68 1007.79 1007.84 1007.83 1007.76 1007.61 1007.40 1007.12 1006.79 1006.41 1005.99 1005.55 1005.07 1004.56 1004.00 1003.40 1002.74 1002.01 1001.22 1000.35 999.42 998.45 997.45 996.45 995.48 994.55 993.70 992.95 992.32
1006.73 1006.82 1006.87 1006.88 1006.87 1006.84 1006.81 1006.80 1006.81 1006.86 1006.94 1007.06 1007.20 1007.35 1007.50 1007.63 1007.72 1007.75 1007.73 1007.63 1007.46 1007.22 1006.93 1006.58 1006.19 1005.75 1005.28 1004.76 1004.20 1003.57 1002.89 1002.13 1001.29 1000.37 999.38 998.33 997.23 996.13 995.03 993.98 993.01 992.13 991.38 990.77
1006.89 1006.91 1006.89 1006.85 1006.78 1006.72 1006.68 1006.66 1006.69 1006.75 1006.86 1006.99 1007.15 1007.31 1007.46 1007.59 1007.66 1007.68 1007.63 1007.51 1007.32 1007.07 1006.76 1006.40 1005.99 1005.53 1005.02 1004.46 1003.83 1003.13 1002.36 1001.49 1000.54 999.50 998.38 997.21 996.01 994.81 993.65 992.55 991.55 990.68 989.95 989.39
Thickness
5651 5656 5657 5656 5657 5657 5651 5645 5638 5645 5648 5656 5661 5662 5663 5663 5662 5661 5660 5659 5658 5656 5655 5654 5653 5652 5650 5649 5648 5646 5643 5641 5640 5640 5639 5638 5637 5636 5636 5636 5636 5635 5634 5634
5645 5653 5653 5650 5654 5654 5654 5652 5647 5647 5648 5659 5660 5658 5657 5656 5656 5655 5654 5654 5653 5652 5650 5649 5648 5647 5645 5644 5642 5641 5638 5636 5635 5633 5632 5631 5631 5630 5630 5629 5629 5628 5628 5628
5626 5639 5640 5635 5648 5649 5649 5650 5648 5641 5648 5654 5652 5653 5653 5653 5652 5651 5651 5650 5649 5647 5646 5645 5644 5643 5640 5639 5637 5634 5632 5630 5628 5627 5626 5625 5625 5624 5623 5623 5622 5622 5621 5621
5615 5622 5615 5638 5651 5651 5647 5647 5648 5647 5648 5650 5651 5652 5652 5652 5649 5647 5647 5646 5645 5643 5642 5641 5640 5638 5635 5633 5630 5628 5626 5624 5622 5621 5620 5618 5617 5616 5616 5616 5615 5615 5615 5614
5604 5605 5616 5635 5645 5646 5639 5638 5642 5641 5642 5643 5645 5644 5643 5647 5646 5644 5644 5643 5641 5640 5639 5636 5634 5632 5629 5626 5624 5622 5620 5618 5617 5616 5613 5611 5610 5609 5609 5609 5608 5608 5608 5607
5599 5600 5603 5626 5643 5649 5640 5628 5639 5638 5637 5636 5635 5624 5630 5640 5640 5639 5638 5636 5635 5634 5632 5630 5628 5626 5622 5620 5617 5616 5615 5614 5613 5611 5608 5606 5604 5603 5602 5602 5602 5602 5601 5600
5595 5594 5607 5627 5638 5639 5618 5621 5635 5635 5633 5631 5626 5626 5630 5633 5633 5632 5631 5630 5629 5627 5625 5623 5621 5619 5615 5613 5612 5612 5611 5609 5607 5605 5603 5601 5598 5597 5595 5595 5594 5594 5594 5593
5589 5587 5600 5627 5628 5621 5620 5627 5629 5628 5628 5626 5625 5626 5626 5626 5625 5625 5623 5622 5622 5620 5618 5617 5615 5612 5608 5607 5609 5607 5605 5603 5601 5599 5597 5596 5592 5590 5588 5588 5586 5585 5584 5583
5592 5599 5614 5620 5622 5624 5622 5620 5621 5620 5621 5620 5618 5617 5618 5618 5618 5617 5616 5614 5614 5612 5610 5609 5608 5606 5603 5602 5602 5600 5598 5596 5594 5592 5590 5588 5585 5583 5581 5580 5579 5578 5577 5575
5590 5600 5607 5611 5614 5616 5615 5615 5616 5616 5615 5614 5611 5610 5609 5610 5609 5608 5607 5606 5605 5604 5602 5601 5600 5600 5598 5596 5595 5593 5590 5588 5586 5584 5582 5580 5578 5577 5575 5574 5572 5571 5570 5569
5581 5591 5596 5602 5604 5605 5607 5608 5608 5608 5608 5607 5605 5603 5603 5601 5601 5601 5600 5598 5597 5596 5595 5594 5594 5592 5591 5589 5588 5585 5582 5580 5578 5577 5574 5572 5570 5569 5569 5568 5568 5567 5566 5564
5575 5585 5582 5589 5596 5598 5598 5598 5598 5598 5598 5599 5598 5596 5596 5594 5594 5593 5592 5591 5590 5589 5588 5587 5586 5585 5584 5583 5581 5578 5575 5573 5571 5569 5567 5564 5563 5561 5562 5561 5562 5561 5560 5559
5578 5582 5581 5586 5589 5590 5590 5591 5590 5589 5589 5588 5589 5588 5588 5587 5587 5586 5585 5584 5583 5583 5582 5580 5579 5578 5577 5576 5574 5571 5568 5566 5564 5562 5560 5557 5555 5553 5552 5553 5553 5552 5552 5551
5574 5574 5573 5577 5578 5581 5582 5583 5582 5581 5580 5580 5579 5579 5579 5579 5579 5578 5578 5578 5577 5576 5575 5574 5573 5571 5571 5569 5567 5564 5562 5560 5558 5555 5553 5550 5548 5546 5544 5544 5543 5542 5542 5542
5567 5567 5567 5570 5571 5572 5572 5571 5571 5570 5570 5570 5570 5570 5570 5570 5570 5571 5571 5571 5569 5568 5567 5566 5565 5564 5564 5562 5559 5557 5554 5552 5549 5547 5544 5542 5540 5537 5536 5535 5533 5532 5531 5532
5560 5560 5560 5560 5561 5561 5561 5561 5560 5561 5561 5562 5561 5562 5562 5562 5562 5562 5562 5561 5559 5558 5559 5558 5558 5557 5556 5554 5551 5548 5546 5546 5543 5539 5536 5533 5531 5529 5527 5525 5524 5523 5522 5522
5550 5549 5550 5550 5551 5551 5551 5552 5552 5553 5553 5553 5554 5554 5554 5553 5552 5552 5553 5553 5552 5551 5551 5551 5550 5550 5548 5546 5543 5541 5538 5536 5535 5531 5528 5525 5523 5521 5519 5517 5516 5515 5514 5514
5547 5546 5545 5544 5544 5543 5543 5543 5544 5545 5545 5546 5546 5546 5545 5544 5543 5543 5544 5544 5543 5542 5542 5542 5542 5541 5539 5538 5536 5533 5530 5528 5525 5523 5520 5518 5515 5513 5511 5510 5509 5508 5506 5505
5540 5539 5538 5538 5537 5536 5535 5535 5535 5535 5536 5537 5536 5536 5536 5536 5536 5536 5535 5533 5532 5531 5532 5533 5533 5532 5530 5529 5528 5525 5522 5520 5517 5514 5512 5510 5508 5505 5503 5502 5500 5499 5498 5496
5532 5531 5530 5530 5529 5528 5527 5527 5527 5527 5527 5527 5527 5526 5526 5526 5527 5526 5526 5524 5524 5524 5524 5524 5522 5522 5521 5520 5519 5516 5513 5511 5509 5506 5503 5501 5500 5497 5495 5494 5492 5491 5489 5487
5523 5522 5521 5520 5520 5519 5519 5518 5518 5517 5518 5518 5517 5517 5517 5517 5517 5517 5516 5515 5516 5516 5516 5515 5513 5512 5511 5510 5509 5507 5504 5501 5499 5497 5495 5493 5491 5489 5487 5486 5484 5483 5481 5480
5514 5513 5512 5511 5510 5509 5508 5508 5508 5508 5508 5508 5508 5508 5507 5507 5507 5508 5508 5507 5508 5508 5507 5505 5504 5504 5503 5502 5499 5497 5495 5493 5491 5489 5486 5485 5483 5482 5480 5478 5476 5475 5473 5471
5504 5504 5503 5502 5500 5499 5498 5498 5499 5499 5499 5499 5499 5498 5498 5498 5498 5498 5498 5500 5500 5500 5498 5497 5497 5497 5496 5492 5490 5488 5486 5484 5482 5480 5478 5477 5475 5474 5473 5471 5469 5467 5465 5463
5495 5494 5493 5492 5491 5489 5488 5489 5489 5490 5490 5490 5490 5490 5489 5489 5490 5491 5492 5493 5493 5492 5490 5489 5488 5488 5486 5482 5480 5479 5477 5476 5474 5472 5471 5469 5467 5465 5464 5462 5460 5459 5457 5456
5486 5485 5483 5482 5481 5480 5480 5480 5480 5480 5480 5480 5481 5481 5482 5482 5482 5483 5483 5483 5484 5482 5480 5480 5479 5478 5476 5473 5472 5470 5469 5467 5466 5464 5462 5460 5458 5457 5455 5453 5452 5451 5449 5449
5476 5475 5475 5475 5474 5473 5472 5471 5471 5471 5471 5471 5472 5473 5473 5474 5474 5474 5474 5474 5474 5473 5471 5469 5468 5467 5465 5464 5463 5462 5460 5459 5457 5455 5453 5451 5450 5448 5446 5445 5444 5443 5442 5441
5466 5466 5465 5465 5465 5465 5464 5463 5463 5463 5464 5464 5464 5465 5465 5465 5465 5464 5464 5464 5463 5462 5461 5460 5459 5457 5456 5455 5453 5452 5451 5450 5449 5447 5445 5444 5442 5440 5439 5438 5437 5437 5436 5435